Terug naar catalogus

CZ-6A DEB

ActiefSSO
NORAD 54595·DEBRIS·🇨🇳 China

Gelanceerd Nov 11, 2022 vanaf Taiyuan Satellite Launch Center

Loading…

Volgende Passages (komende 24 uur)

TLE

VersSource: Space-Track

Epoch: Sep 14, 2026, 08:10 UTC

1 54595U 22151MV  26257.34066076  .00000584  00000-0  19205-3 0  9990
2 54595  98.5705 282.5526 0100754 100.2959 260.9607 14.39091248200774

Volg CZ-6A DEB in realtime met AllMySat

Download on the App Store